RYR5GH EGGP-EDDH

Flight info

Callsign RYR5GH
Flight time 1h 20m
Altitude 33000
Route BARTN1V BARTN L975 DESIG L603 LAMSO DCT VALAM DCT GASTU DCT OSTOR/N0417F230 T904 RIBSO RIBSO3P
Aircraft B738/M-SDE2E3FGHIRWXY/LB1

Departure

Time 2026-04-23 16:37
Airport Liverpool John Lennon Airport (EGGP)

Arrival

Time 2026-04-23 17:58
Airport Hamburg Helmut Schmidt Airport (EDDH)
Time Latitude Longitude Altitude Speed Heading
2026-04-23 16:05 53.33532 -2.86189 93 ft 0 kts 174°
2026-04-23 16:29 53.33546 -2.86191 93 ft 4 kts 172°
2026-04-23 16:30 53.33568 -2.86194 93 ft 4 kts 204°
2026-04-23 16:30 53.33583 -2.86166 96 ft 4 kts 254°
2026-04-23 16:30 53.33588 -2.86122 94 ft 4 kts 265°
2026-04-23 16:30 53.33590 -2.86091 93 ft 0 kts 265°
2026-04-23 16:33 53.33588 -2.86114 93 ft 4 kts 263°
2026-04-23 16:34 53.33582 -2.86191 93 ft 9 kts 263°
2026-04-23 16:34 53.33545 -2.86299 93 ft 13 kts 214°
2026-04-23 16:34 53.33465 -2.86368 93 ft 14 kts 253°
2026-04-23 16:34 53.33384 -2.86428 93 ft 14 kts 175°
2026-04-23 16:35 53.33308 -2.86416 93 ft 7 kts 175°
2026-04-23 16:35 53.33296 -2.86373 93 ft 5 kts 81°
2026-04-23 16:35 53.33298 -2.86351 93 ft 0 kts 85°
2026-04-23 16:36 53.33298 -2.86343 93 ft 8 kts 85°
2026-04-23 16:36 53.33325 -2.85774 93 ft 89 kts 85°
2026-04-23 16:36 53.33367 -2.84907 93 ft 135 kts 85°
2026-04-23 16:37 53.33450 -2.83045 375 ft 173 kts 87°
2026-04-23 16:37 53.33569 -2.80997 1263 ft 177 kts 85°
2026-04-23 16:37 53.33864 -2.79055 2352 ft 175 kts 63°
2026-04-23 16:37 53.34868 -2.77659 2833 ft 209 kts 21°
2026-04-23 16:38 53.36415 -2.77531 3129 ft 239 kts 356°
2026-04-23 16:38 53.38139 -2.77832 3565 ft 259 kts 356°
2026-04-23 16:38 53.40026 -2.78089 3939 ft 280 kts 357°
2026-04-23 16:38 53.42014 -2.78047 4230 ft 290 kts 17°
2026-04-23 16:39 53.43646 -2.76347 5345 ft 271 kts 54°
2026-04-23 16:39 53.44425 -2.73528 6156 ft 269 kts 83°
2026-04-23 16:39 53.44653 -2.70390 6967 ft 274 kts 85°
2026-04-23 16:39 53.44882 -2.67198 7707 ft 278 kts 89°
2026-04-23 16:40 53.44989 -2.63984 8481 ft 281 kts 88°
2026-04-23 16:40 53.45214 -2.60698 9259 ft 286 kts 85°
2026-04-23 16:40 53.45513 -2.57368 10017 ft 291 kts 83°
2026-04-23 16:40 53.45861 -2.53995 10739 ft 296 kts 81°
2026-04-23 16:41 53.46244 -2.50480 10997 ft 318 kts 80°
2026-04-23 16:41 53.46663 -2.46701 11203 ft 341 kts 81°
2026-04-23 16:41 53.47110 -2.42663 11430 ft 360 kts 81°
2026-04-23 16:41 53.47564 -2.38476 11956 ft 369 kts 82°
2026-04-23 16:42 53.48015 -2.34219 12382 ft 367 kts 82°
2026-04-23 16:42 53.48463 -2.29959 12748 ft 374 kts 82°
2026-04-23 16:42 53.48916 -2.25647 13529 ft 376 kts 82°
2026-04-23 16:42 53.49367 -2.21337 14163 ft 381 kts 81°
2026-04-23 16:43 53.49827 -2.16941 14815 ft 384 kts 81°
2026-04-23 16:43 53.50290 -2.12510 15483 ft 386 kts 81°
2026-04-23 16:43 53.50756 -2.08067 16197 ft 386 kts 82°
2026-04-23 16:43 53.51223 -2.03604 16809 ft 390 kts 82°
2026-04-23 16:44 53.51692 -1.99086 17456 ft 393 kts 82°
2026-04-23 16:44 53.52158 -1.94562 18135 ft 394 kts 83°
2026-04-23 16:44 53.52359 -1.89975 18751 ft 395 kts 93°
2026-04-23 16:44 53.52064 -1.85386 19273 ft 397 kts 102°
2026-04-23 16:45 53.51335 -1.80906 19807 ft 399 kts 107°
2026-04-23 16:45 53.50515 -1.76436 20340 ft 401 kts 107°
2026-04-23 16:45 53.49689 -1.71935 20818 ft 405 kts 106°
2026-04-23 16:45 53.48871 -1.67375 21280 ft 409 kts 105°
2026-04-23 16:46 53.48062 -1.62785 21826 ft 411 kts 104°
2026-04-23 16:46 53.47251 -1.58174 22337 ft 414 kts 105°
2026-04-23 16:46 53.46421 -1.53517 22772 ft 418 kts 105°
2026-04-23 16:46 53.45579 -1.48854 23374 ft 417 kts 106°
2026-04-23 16:47 53.44737 -1.44199 23960 ft 417 kts 105°
2026-04-23 16:47 53.43900 -1.39573 24280 ft 422 kts 106°
2026-04-23 16:47 53.43057 -1.34920 24586 ft 426 kts 106°
2026-04-23 16:47 53.42998 -1.34592 24596 ft 426 kts 106°
2026-04-23 16:48 53.42134 -1.29838 25100 ft 425 kts 106°
2026-04-23 16:48 53.41278 -1.25088 25513 ft 426 kts 106°
2026-04-23 16:48 53.40441 -1.20305 25832 ft 430 kts 106°
2026-04-23 16:48 53.39576 -1.15473 26123 ft 434 kts 107°
2026-04-23 16:49 53.38992 -1.12282 26452 ft 433 kts 107°
2026-04-23 16:49 53.37799 -1.05828 26950 ft 435 kts 108°
2026-04-23 16:49 53.36896 -1.00955 27185 ft 439 kts 109°
2026-04-23 16:49 53.35991 -0.96074 27701 ft 437 kts 110°
2026-04-23 16:50 53.35092 -0.91225 28098 ft 437 kts 110°
2026-04-23 16:50 53.34186 -0.86349 28376 ft 440 kts 110°
2026-04-23 16:50 53.33284 -0.81502 28659 ft 443 kts 110°
2026-04-23 16:50 53.32367 -0.76579 28995 ft 444 kts 110°
2026-04-23 16:51 53.31448 -0.71658 29471 ft 441 kts 111°
2026-04-23 16:51 53.30534 -0.66779 30021 ft 437 kts 111°
2026-04-23 16:51 53.29622 -0.61935 30542 ft 435 kts 111°
2026-04-23 16:51 53.28710 -0.57112 30892 ft 434 kts 111°
2026-04-23 16:52 53.27800 -0.52303 31181 ft 434 kts 111°
2026-04-23 16:52 53.26887 -0.47493 31477 ft 435 kts 112°
2026-04-23 16:52 53.25973 -0.42679 31816 ft 434 kts 111°
2026-04-23 16:52 53.25067 -0.37883 32157 ft 433 kts 111°
2026-04-23 16:53 53.24160 -0.33087 32484 ft 432 kts 111°
2026-04-23 16:53 53.23253 -0.28306 32779 ft 432 kts 111°
2026-04-23 16:53 53.22348 -0.23591 33065 ft 432 kts 111°
2026-04-23 16:53 53.21428 -0.18826 33380 ft 431 kts 111°
2026-04-23 16:54 53.19568 -0.09222 33463 ft 437 kts 111°
2026-04-23 16:54 53.17706 0.00374 33445 ft 431 kts 112°
2026-04-23 16:55 53.15888 0.09749 33467 ft 423 kts 112°
2026-04-23 16:55 53.14073 0.19052 33469 ft 421 kts 112°
2026-04-23 16:56 53.12255 0.28320 33471 ft 421 kts 112°
2026-04-23 16:56 53.10430 0.37589 33472 ft 422 kts 113°
2026-04-23 16:57 53.08594 0.46868 33476 ft 423 kts 113°
2026-04-23 16:57 53.06755 0.56123 33472 ft 424 kts 113°
2026-04-23 16:58 53.04894 0.65447 33464 ft 425 kts 113°
2026-04-23 16:58 53.03020 0.74786 33465 ft 426 kts 113°
2026-04-23 16:59 53.01135 0.84142 33464 ft 427 kts 113°
2026-04-23 16:59 52.99244 0.93490 33470 ft 427 kts 113°
2026-04-23 17:00 52.97485 1.02858 33447 ft 430 kts 107°
2026-04-23 17:00 52.96353 1.12611 33462 ft 430 kts 105°
2026-04-23 17:01 52.95284 1.22377 33461 ft 429 kts 105°
2026-04-23 17:01 52.94177 1.32095 33468 ft 428 kts 105°
2026-04-23 17:02 52.93047 1.41735 33466 ft 428 kts 105°
2026-04-23 17:02 52.91898 1.51398 33465 ft 427 kts 106°
2026-04-23 17:03 52.90742 1.61045 33462 ft 427 kts 105°
2026-04-23 17:03 52.89578 1.70699 33465 ft 427 kts 105°
2026-04-23 17:04 52.88407 1.80337 33468 ft 427 kts 105°
2026-04-23 17:04 52.87226 1.89995 33463 ft 428 kts 105°
2026-04-23 17:05 52.86036 1.99656 33465 ft 429 kts 106°
2026-04-23 17:05 52.84836 2.09328 33451 ft 429 kts 105°
2026-04-23 17:06 52.83635 2.18944 33453 ft 430 kts 105°
2026-04-23 17:06 52.82417 2.28626 33458 ft 430 kts 105°
2026-04-23 17:07 52.81189 2.38322 33446 ft 431 kts 105°
2026-04-23 17:07 52.79953 2.48024 33452 ft 431 kts 106°
2026-04-23 17:08 52.78703 2.57729 33451 ft 431 kts 106°
2026-04-23 17:08 52.77444 2.67414 33442 ft 431 kts 106°
2026-04-23 17:09 52.76182 2.77090 33451 ft 431 kts 106°
2026-04-23 17:09 52.74926 2.86770 33446 ft 431 kts 105°
2026-04-23 17:10 52.73813 2.96499 33432 ft 434 kts 98°
2026-04-23 17:10 52.74143 3.06450 33436 ft 443 kts 82°
2026-04-23 17:11 52.75497 3.16373 33443 ft 443 kts 81°
2026-04-23 17:11 52.76883 3.26298 33438 ft 443 kts 82°
2026-04-23 17:12 52.78232 3.36242 33439 ft 443 kts 82°
2026-04-23 17:12 52.79550 3.46193 33445 ft 443 kts 82°
2026-04-23 17:13 52.80856 3.56161 33432 ft 444 kts 82°
2026-04-23 17:13 52.82153 3.66135 33441 ft 443 kts 82°
2026-04-23 17:14 52.83434 3.76054 33436 ft 444 kts 82°
2026-04-23 17:14 52.84717 3.86049 33438 ft 444 kts 82°
2026-04-23 17:15 52.85991 3.96045 33435 ft 444 kts 82°
2026-04-23 17:15 52.87257 4.06055 33421 ft 444 kts 82°
2026-04-23 17:16 52.88513 4.16057 33434 ft 444 kts 82°
2026-04-23 17:16 52.89755 4.26020 33428 ft 444 kts 82°
2026-04-23 17:17 52.90996 4.36048 33422 ft 444 kts 82°
2026-04-23 17:17 52.92230 4.46092 33418 ft 444 kts 82°
2026-04-23 17:18 52.94064 4.61161 33416 ft 445 kts 82°
2026-04-23 17:19 52.95278 4.71230 33433 ft 445 kts 82°
2026-04-23 17:19 52.96486 4.81323 33429 ft 446 kts 82°
2026-04-23 17:20 52.97680 4.91377 33425 ft 447 kts 82°
2026-04-23 17:21 53.00059 5.11645 33419 ft 447 kts 82°
2026-04-23 17:21 53.02583 5.26616 33423 ft 452 kts 73°
2026-04-23 17:22 53.05851 5.41323 33426 ft 452 kts 73°
2026-04-23 17:23 53.09012 5.56054 33417 ft 453 kts 73°
2026-04-23 17:24 53.12128 5.70908 33402 ft 453 kts 73°
2026-04-23 17:24 53.14872 5.84095 33406 ft 453 kts 73°
2026-04-23 17:25 53.17955 5.99000 33403 ft 453 kts 73°
2026-04-23 17:26 53.22041 6.18928 33402 ft 454 kts 73°
2026-04-23 17:27 53.25071 6.33834 33396 ft 453 kts 73°
2026-04-23 17:27 53.27087 6.43818 33393 ft 453 kts 73°
2026-04-23 17:28 53.29093 6.53799 33395 ft 452 kts 73°
2026-04-23 17:28 53.31085 6.63764 33381 ft 452 kts 74°
2026-04-23 17:29 53.33068 6.73733 33254 ft 452 kts 74°
2026-04-23 17:29 53.35026 6.83624 32701 ft 442 kts 74°
2026-04-23 17:30 53.35984 6.88478 32435 ft 438 kts 74°
2026-04-23 17:30 53.37880 6.98135 31924 ft 434 kts 74°
2026-04-23 17:30 53.38821 7.02941 31678 ft 432 kts 74°
2026-04-23 17:31 53.39752 7.07718 31437 ft 431 kts 73°
2026-04-23 17:31 53.40669 7.12425 31192 ft 429 kts 74°
2026-04-23 17:31 53.41591 7.17177 30952 ft 428 kts 73°
2026-04-23 17:31 53.42510 7.21920 30711 ft 427 kts 74°
2026-04-23 17:32 53.43425 7.26654 30472 ft 425 kts 73°
2026-04-23 17:32 53.44334 7.31373 30184 ft 424 kts 73°
2026-04-23 17:32 53.45237 7.36068 29902 ft 422 kts 73°
2026-04-23 17:32 53.46135 7.40750 29618 ft 420 kts 73°
2026-04-23 17:33 53.47025 7.45396 29213 ft 415 kts 73°
2026-04-23 17:33 53.47901 7.49984 28824 ft 410 kts 73°
2026-04-23 17:33 53.48764 7.54515 28409 ft 406 kts 73°
2026-04-23 17:33 53.49618 7.59011 27989 ft 402 kts 73°
2026-04-23 17:34 53.50464 7.63480 27574 ft 399 kts 73°
2026-04-23 17:34 53.51292 7.67858 27169 ft 396 kts 73°
2026-04-23 17:34 53.52944 7.76625 26370 ft 391 kts 72°
2026-04-23 17:35 53.53762 7.80985 25971 ft 389 kts 72°
2026-04-23 17:35 53.55377 7.89619 25176 ft 385 kts 72°
2026-04-23 17:35 53.56176 7.93904 24781 ft 383 kts 72°
2026-04-23 17:36 53.56971 7.98178 24419 ft 381 kts 72°
2026-04-23 17:36 53.57752 8.02386 24370 ft 373 kts 72°
2026-04-23 17:36 53.58517 8.06516 24336 ft 364 kts 71°
2026-04-23 17:36 53.59259 8.10533 24322 ft 353 kts 72°
2026-04-23 17:37 53.59973 8.14409 24309 ft 340 kts 72°
2026-04-23 17:37 53.60660 8.18146 24311 ft 328 kts 72°
2026-04-23 17:37 53.61952 8.25187 24194 ft 310 kts 71°
2026-04-23 17:38 53.62600 8.28722 23457 ft 324 kts 71°
2026-04-23 17:38 53.63289 8.32482 22345 ft 347 kts 71°
2026-04-23 17:38 53.64004 8.36400 21848 ft 350 kts 70°
2026-04-23 17:38 53.64707 8.40272 21511 ft 341 kts 71°
2026-04-23 17:39 53.65396 8.44079 20980 ft 340 kts 70°
2026-04-23 17:39 53.66091 8.47913 20557 ft 341 kts 70°
2026-04-23 17:39 53.66777 8.51711 20275 ft 335 kts 71°
2026-04-23 17:39 53.67449 8.55444 19825 ft 331 kts 70°
2026-04-23 17:40 53.68116 8.59151 19303 ft 330 kts 70°
2026-04-23 17:40 53.68781 8.62848 18806 ft 329 kts 70°
2026-04-23 17:40 53.69441 8.66532 18313 ft 326 kts 69°
2026-04-23 17:40 53.70083 8.70126 17822 ft 323 kts 70°
2026-04-23 17:41 53.70729 8.73740 17282 ft 321 kts 69°
2026-04-23 17:41 53.71998 8.80873 16442 ft 312 kts 70°
2026-04-23 17:41 53.72623 8.84396 16106 ft 314 kts 69°
2026-04-23 17:42 53.73881 8.91490 15435 ft 316 kts 69°
2026-04-23 17:42 53.74508 8.95043 15090 ft 316 kts 69°
2026-04-23 17:42 53.75134 8.98598 14751 ft 315 kts 69°
2026-04-23 17:43 53.75758 9.02153 14413 ft 315 kts 69°
2026-04-23 17:43 53.76381 9.05705 14064 ft 315 kts 69°
2026-04-23 17:43 53.77002 9.09249 13686 ft 314 kts 69°
2026-04-23 17:43 53.77620 9.12787 13327 ft 313 kts 69°
2026-04-23 17:44 53.78236 9.16321 12979 ft 312 kts 69°
2026-04-23 17:44 53.78847 9.19834 12645 ft 310 kts 69°
2026-04-23 17:44 53.80032 9.26669 11947 ft 295 kts 69°
2026-04-23 17:45 53.80599 9.29955 11627 ft 287 kts 69°
2026-04-23 17:45 53.81623 9.36260 11156 ft 270 kts 72°
2026-04-23 17:45 53.81993 9.39321 10998 ft 260 kts 73°
2026-04-23 17:46 53.82689 9.45287 10745 ft 258 kts 73°
2026-04-23 17:46 53.83042 9.48280 10612 ft 259 kts 73°
2026-04-23 17:46 53.83399 9.51290 10475 ft 261 kts 73°
2026-04-23 17:47 53.83758 9.54307 10331 ft 262 kts 73°
2026-04-23 17:47 53.84120 9.57346 10190 ft 263 kts 73°
2026-04-23 17:47 53.84833 9.63356 9872 ft 257 kts 73°
2026-04-23 17:48 53.85183 9.66297 9726 ft 253 kts 73°
2026-04-23 17:48 53.85526 9.69179 9598 ft 253 kts 73°
2026-04-23 17:48 53.85875 9.72119 9422 ft 256 kts 72°
2026-04-23 17:48 53.86226 9.75084 9252 ft 258 kts 72°
2026-04-23 17:49 53.86577 9.78063 9070 ft 257 kts 72°
2026-04-23 17:49 53.86763 9.81083 8873 ft 261 kts 89°
2026-04-23 17:49 53.86546 9.84131 8708 ft 260 kts 92°
2026-04-23 17:49 53.86300 9.87170 8501 ft 261 kts 92°
2026-04-23 17:50 53.86060 9.90240 8227 ft 263 kts 92°
2026-04-23 17:50 53.85593 9.96477 7449 ft 266 kts 91°
2026-04-23 17:50 53.85366 9.99558 7151 ft 262 kts 91°
2026-04-23 17:51 53.85144 10.02601 6856 ft 258 kts 91°
2026-04-23 17:51 53.84929 10.05592 6556 ft 254 kts 91°
2026-04-23 17:51 53.84486 10.11472 5933 ft 252 kts 97°
2026-04-23 17:52 53.83755 10.14171 5614 ft 257 kts 121°
2026-04-23 17:52 53.81626 10.19016 5015 ft 257 kts 124°
2026-04-23 17:52 53.80527 10.21458 4512 ft 264 kts 124°
2026-04-23 17:53 53.78149 10.26134 3546 ft 263 kts 147°
2026-04-23 17:53 53.76458 10.27088 3154 ft 253 kts 180°
2026-04-23 17:53 53.74792 10.26467 3018 ft 244 kts 215°
2026-04-23 17:54 53.73600 10.24584 2846 ft 231 kts 246°
2026-04-23 17:54 53.73091 10.22149 2605 ft 212 kts 263°
2026-04-23 17:54 53.72824 10.17675 2480 ft 190 kts 258°
2026-04-23 17:55 53.70979 10.14319 2502 ft 194 kts 233°
2026-04-23 17:55 53.70075 10.12724 2483 ft 183 kts 235°
2026-04-23 17:55 53.69219 10.11181 2475 ft 178 kts 233°
2026-04-23 17:56 53.68388 10.09648 2501 ft 177 kts 238°
2026-04-23 17:56 53.66691 10.06280 1846 ft 197 kts 236°
2026-04-23 17:56 53.65810 10.04511 1326 ft 196 kts 238°
2026-04-23 17:57 53.64974 10.02720 741 ft 191 kts 236°
2026-04-23 17:57 53.64146 10.01075 268 ft 176 kts 234°
2026-04-23 17:57 53.62825 9.98394 44 ft 85 kts 230°
2026-04-23 17:58 53.62577 9.97886 41 ft 39 kts 230°
2026-04-23 17:58 53.62472 9.97793 38 ft 13 kts 161°
2026-04-23 17:58 53.62430 9.97871 40 ft 7 kts 105°
2026-04-23 17:58 53.62431 9.97934 40 ft 4 kts 80°
2026-04-23 17:59 53.62435 9.97976 37 ft 4 kts 80°
2026-04-23 17:59 53.62445 9.98025 40 ft 6 kts 67°
2026-04-23 17:59 53.62480 9.98126 40 ft 12 kts 58°
2026-04-23 17:59 53.62536 9.98239 41 ft 13 kts 47°
2026-04-23 18:00 53.62591 9.98351 40 ft 12 kts 50°
2026-04-23 18:00 53.62645 9.98459 41 ft 12 kts 50°
2026-04-23 18:00 53.62697 9.98564 42 ft 12 kts 50°
2026-04-23 18:00 53.62752 9.98677 42 ft 13 kts 50°
2026-04-23 18:01 53.62816 9.98805 42 ft 15 kts 50°
2026-04-23 18:01 53.62886 9.98947 42 ft 16 kts 50°
2026-04-23 18:01 53.62959 9.99095 43 ft 16 kts 50°
2026-04-23 18:01 53.63031 9.99240 43 ft 16 kts 51°
2026-04-23 18:02 53.63072 9.99333 44 ft 9 kts 54°
2026-04-23 18:02 53.63100 9.99402 44 ft 5 kts 54°
2026-04-23 18:02 53.63122 9.99453 45 ft 6 kts 54°
2026-04-23 18:02 53.63150 9.99520 44 ft 11 kts 54°
2026-04-23 18:03 53.63206 9.99637 43 ft 8 kts 50°
2026-04-23 18:03 53.63223 9.99670 44 ft 2 kts 48°
2026-04-23 18:03 53.63231 9.99686 44 ft 2 kts 49°
2026-04-23 18:03 53.63236 9.99705 44 ft 2 kts 75°
2026-04-23 18:04 53.63235 9.99725 44 ft 2 kts 96°
2026-04-23 18:04 53.63229 9.99749 44 ft 3 kts 123°
2026-04-23 18:04 53.63203 9.99775 44 ft 5 kts 152°
2026-04-23 18:04 53.63174 9.99803 44 ft 6 kts 151°
2026-04-23 18:05 53.63119 9.99853 44 ft 12 kts 153°
2026-04-23 18:05 53.63038 9.99922 44 ft 13 kts 153°
2026-04-23 18:05 53.62963 9.99987 45 ft 12 kts 154°
2026-04-23 18:05 53.62885 10.00040 45 ft 12 kts 163°
2026-04-23 18:06 53.62811 10.00100 45 ft 12 kts 154°
2026-04-23 18:06 53.62739 10.00164 45 ft 11 kts 150°
2026-04-23 18:06 53.62670 10.00224 45 ft 11 kts 154°
2026-04-23 18:06 53.62640 10.00249 46 ft 0 kts 154°
2026-04-23 18:07 53.62628 10.00277 46 ft 5 kts 104°
2026-04-23 18:07 53.62638 10.00334 43 ft 5 kts 66°
2026-04-23 18:07 53.62651 10.00376 45 ft 0 kts 62°